This is the latest recevied weather packets stored in our database for station/object SV4JYD-13. If no packets are shown the sender has not sent any weather packets the latest 10 day(s).
| Time | Temp. | Humidity | Pressure | Rain* | Wind** | Luminosity | Snow |
|---|---|---|---|---|---|---|---|
| 1777557085 | 18.89° C | 56% | 1013 hPa | 0 mm | - | - | - |
| 1777556185 | 19.44° C | 56% | 1013 hPa | 0 mm | - | - | - |
| 1777555285 | 19.44° C | 56% | 1013 hPa | 0 mm | - | - | - |
| 1777554384 | 20° C | 55% | 1013 hPa | 0 mm | - | - | - |
| 1777553484 | 20.56° C | 54% | 1013 hPa | 0 mm | - | - | - |
| 1777552584 | 21.11° C | 54% | 1014 hPa | 0 mm | - | - | - |
| 1777551684 | 21.11° C | 53% | 1014 hPa | 0 mm | - | - | - |
| 1777550783 | 21.67° C | 52% | 1014 hPa | 0 mm | - | - | - |
| 1777549883 | 20° C | 65% | 1014 hPa | 0 mm | - | - | - |
| 1777548983 | 20° C | 67% | 1014 hPa | 0 mm | - | - | - |
| 1777548083 | 20° C | 70% | 1015 hPa | 0 mm | - | - | - |
| 1777547182 | 20° C | 73% | 1015 hPa | 0 mm | - | - | - |
| 1777546282 | 20° C | 69% | 1015 hPa | 0 mm | - | - | - |
| 1777545382 | 20° C | 72% | 1015 hPa | 0 mm | - | - | - |
| 1777544481 | 20.56° C | 76% | 1016 hPa | 0 mm | - | - | - |
| 1777543581 | 20.56° C | 75% | 1016 hPa | 0 mm | - | - | - |
| 1777542681 | 20.56° C | 80% | 1016 hPa | 0 mm | - | - | - |
| 1777541781 | 20.56° C | 80% | 1016 hPa | 0 mm | - | - | - |
| 1777540880 | 21.11° C | 80% | 1016 hPa | 0 mm | - | - | - |
| 1777539980 | 18.33° C | 69% | 1016 hPa | 0 mm | - | - | - |
| 1777539080 | 18.33° C | 72% | 1016 hPa | 0 mm | - | - | - |
| 1777538180 | 18.33° C | 76% | 1016 hPa | 0 mm | - | - | - |
| 1777537279 | 18.33° C | 82% | 1017 hPa | 0 mm | - | - | - |
| 1777536379 | 18.33° C | 83% | 1017 hPa | 0 mm | - | - | - |
| 1777535479 | 18.33° C | 84% | 1017 hPa | 0 mm | - | - | - |
* Rain latest hour (hover to see other rain measurements)
** Current wind speed in m/s (hover to see current wind gust speed)